KB2UHF-8 Weather Reports


Display with metric or nautical units.
time (UTC)temp
F
wind
direction
speed
MPH
gust
MPH
rain 1hr
in
rain 24hr
in
rain mn
in
humidity
%
barometer
mb
20260906163515 75 135 4.0 9.0 0.00 0.00 0.00 78 1021.4
20260906162516 75 135 3.0 9.0 0.00 0.00 0.00 78 1021.7
20260906161515 75 135 5.0 8.0 0.00 0.00 0.00 76 1021.7
20260906160516 74 135 2.0 7.0 0.00 0.00 0.00 78 1021.7
20260906155517 74 90 4.0 8.0 0.00 0.00 0.00 79 1021.8
20260906154515 74 135 4.0 8.0 0.00 0.00 0.00 80 1021.7
20260906153517 74 113 4.0 8.0 0.00 0.00 0.00 79 1021.6
20260906152535 73 135 5.0 9.0 0.00 0.00 0.00 80 1021.5
20260906151535 72 135 4.0 8.0 0.00 0.00 0.00 83 1021.4
20260906150557 70 113 5.0 10.0 0.00 0.00 0.00 85 1021.3
20260906145537 70 113 4.0 8.0 0.00 0.00 0.00 86 1021.2
20260906144515 69 90 4.0 7.0 0.00 0.00 0.00 89 1021.0
20260906143515 68 113 5.0 9.0 0.00 0.00 0.00 92 1021.0
20260906142517 67 113 4.0 6.0 0.00 0.00 0.00 96 1021.0
20260906141536 66 90 4.0 7.0 0.00 0.00 0.00 98 1021.0
20260906140517 65 68 3.0 7.0 0.00 0.00 0.00 98 1021.2
20260906135517 65 113 4.0 7.0 0.00 0.00 0.00 98 1021.2
20260906134515 64 90 3.0 7.0 0.00 0.00 0.00 98 1021.2
20260906133535 64 90 3.0 7.0 0.00 0.00 0.00 98 1020.9
20260906132515 64 90 1.0 3.0 0.00 0.00 0.00 98 1021.1
20260906131515 64 90 2.0 4.0 0.00 0.00 0.00 98 1021.0
20260906130515 63 68 2.0 4.0 0.00 0.00 0.00 98 1021.0
20260906125555 63 90 2.0 4.0 0.00 0.00 0.00 98 1020.8
20260906124515 63 90 3.0 5.0 0.00 0.00 0.00 98 1020.8
20260906123515 63 68 3.0 6.0 0.00 0.00 0.00 98 1020.6
20260906122515 63 90 3.0 6.0 0.00 0.00 0.00 98 1020.7
20260906121515 63 90 2.0 4.0 0.00 0.01 0.00 98 1020.5
20260906120539 63 90 2.0 4.0 0.00 0.01 0.00 98 1020.4
20260906115517 63 68 3.0 6.0 0.00 0.01 0.00 98 1020.2
20260906114517 63 90 3.0 6.0 0.00 0.01 0.00 98 1020.0
20260906113517 63 90 4.0 8.0 0.00 0.01 0.00 98 1019.7
20260906112519 63 90 3.0 7.0 0.00 0.01 0.00 98 1019.8
20260906111517 63 90 3.0 7.0 0.00 0.01 0.00 98 1020.0
20260906110517 63 90 3.0 5.0 0.00 0.01 0.00 98 1020.0
20260906105517 63 68 2.0 4.0 0.00 0.01 0.00 98 1019.8
20260906104517 63 45 2.0 4.0 0.00 0.01 0.00 98 1019.8
20260906103517 63 45 2.0 3.0 0.00 0.01 0.00 98 1019.7
20260906102517 63 0.0 2.0 0.00 0.01 0.00 98 1019.4
20260906101517 63 68 2.0 4.0 0.00 0.01 0.00 98 1019.2
20260906100517 63 90 3.0 7.0 0.00 0.01 0.00 98 1019.0
20260906095517 64 90 2.0 4.0 0.00 0.01 0.00 98 1019.1
20260906094517 64 90 2.0 5.0 0.00 0.01 0.00 98 1019.1
20260906093517 64 90 2.0 4.0 0.00 0.01 0.00 98 1019.0
20260906092517 64 90 2.0 4.0 0.00 0.01 0.00 98 1019.2
20260906091517 64 90 3.0 8.0 0.00 0.01 0.00 98 1019.1
20260906090517 64 68 2.0 3.0 0.00 0.01 0.00 98 1019.1
20260906085517 64 90 1.0 3.0 0.00 0.01 0.00 98 1019.4
20260906084537 64 68 1.0 4.0 0.00 0.01 0.00 98 1019.5
20260906083557 64 45 2.0 4.0 0.00 0.01 0.00 98 1019.5
20260906082517 64 45 2.0 4.0 0.00 0.01 0.00 97 1019.4
20260906081537 64 68 1.0 3.0 0.00 0.01 0.00 98 1019.3
20260906080517 63 68 1.0 3.0 0.00 0.01 0.00 97 1019.2
20260906075517 63 68 1.0 3.0 0.00 0.01 0.00 97 1019.2
20260906074517 63 90 1.0 3.0 0.00 0.01 0.00 97 1019.4
20260906073517 63 0.0 3.0 0.00 0.01 0.00 97 1019.3
20260906072517 64 45 1.0 3.0 0.00 0.01 0.00 97 1019.6
20260906071517 64 68 2.0 4.0 0.00 0.01 0.00 96 1019.5
20260906070517 64 68 1.0 3.0 0.00 0.01 0.00 96 1019.5
20260906065516 65 45 1.0 3.0 0.00 0.01 0.00 96 1019.5
20260906064537 65 0.0 0.0 0.00 0.01 0.00 96 1019.8
20260906063517 66 113 2.0 4.0 0.00 0.01 0.00 96 1019.7
20260906062537 66 113 2.0 4.0 0.00 0.01 0.00 96 1019.6
20260906061537 66 0.0 3.0 0.00 0.01 0.00 96 1019.7
20260906060516 66 90 2.0 3.0 0.00 0.01 0.00 96 1019.6
20260906055516 66 90 2.0 4.0 0.00 0.01 0.00 96 1019.5
20260906054517 66 90 2.0 3.0 0.00 0.01 0.00 96 1019.4
20260906053516 67 113 1.0 3.0 0.00 0.01 0.00 95 1019.3
20260906052517 67 0.0 0.0 0.00 0.01 0.00 95 1019.4
20260906051517 67 0.0 0.0 0.00 0.01 0.00 95 1019.4
20260906050517 67 0.0 3.0 0.00 0.01 0.00 95 1019.6
20260906045515 67 0.0 0.0 0.00 0.01 0.01 94 1019.6
20260906044515 68 0.0 0.0 0.00 0.01 0.01 94 1019.8
20260906043515 68 0.0 0.0 0.00 0.01 0.01 93 1019.8
20260906042517 68 0.0 0.0 0.00 0.01 0.01 93 1019.9
20260906041535 69 90 1.0 4.0 0.00 0.01 0.01 93 1019.7
20260906040515 69 90 2.0 6.0 0.00 0.01 0.01 92 1019.6
20260906035515 69 0.0 2.0 0.00 0.01 0.01 92 1019.5
20260906034515 69 90 2.0 3.0 0.00 0.01 0.01 92 1019.1
20260906033535 69 90 2.0 4.0 0.00 0.01 0.01 93 1019.0
20260906032535 69 90 2.0 6.0 0.00 0.01 0.01 92 1018.8
20260906031515 69 90 2.0 5.0 0.00 0.01 0.01 92 1018.4
20260906030535 69 68 1.0 4.0 0.00 0.01 0.01 92 1018.6
20260906025537 70 90 2.0 4.0 0.00 0.01 0.01 91 1018.6
20260906024517 70 68 1.0 5.0 0.00 0.01 0.01 90 1018.7
20260906023519 71 90 3.0 7.0 0.00 0.01 0.01 90 1018.3
20260906022517 71 90 3.0 7.0 0.00 0.01 0.01 89 1018.1
20260906021517 71 90 3.0 10.0 0.00 0.01 0.01 90 1018.0
20260906020517 72 68 4.0 8.0 0.00 0.01 0.01 89 1018.1
20260906015517 72 90 5.0 9.0 0.00 0.01 0.01 89 1017.7
20260906014517 72 113 4.0 11.0 0.00 0.01 0.01 88 1017.6
20260906013517 73 90 4.0 12.0 0.00 0.01 0.01 88 1017.4
20260906012517 73 90 4.0 7.0 0.00 0.01 0.01 88 1017.2
20260906011557 73 90 5.0 9.0 0.00 0.01 0.01 88 1016.9
20260906010517 73 90 5.0 9.0 0.00 0.01 0.01 87 1016.8
20260906005517 73 90 3.0 7.0 0.00 0.01 0.01 87 1016.7
20260906004537 73 68 2.0 7.0 0.00 0.01 0.01 87 1016.7
20260906003517 73 90 3.0 6.0 0.00 0.01 0.01 88 1016.6
20260906002537 73 68 1.0 3.0 0.00 0.01 0.01 89 1016.5
20260906001537 73 90 3.0 7.0 0.00 0.01 0.01 89 1016.5
20260906000517 73 68 2.0 4.0 0.00 0.01 0.01 90 1016.7
20260905235537 73 68 4.0 9.0 0.00 0.01 0.01 90 1016.6
20260905234517 74 90 2.0 4.0 0.00 0.01 0.01 87 1016.8
20260905233517 74 0.0 2.0 0.00 0.01 0.01 86 1016.9
20260905232559 74 0.0 0.0 0.00 0.01 0.01 85 1017.1
20260905231517 75 90 1.0 3.0 0.00 0.01 0.01 86 1017.2
20260905230517 75 0.0 0.0 0.00 0.01 0.01 87 1017.5
20260905225537 75 0.0 0.0 0.00 0.01 0.01 87 1017.6
20260905224517 75 45 2.0 4.0 0.00 0.01 0.01 84 1017.5
20260905223517 75 68 2.0 5.0 0.00 0.01 0.01 84 1017.3
20260905222517 76 68 3.0 5.0 0.00 0.01 0.01 84 1017.1
20260905221517 76 68 2.0 4.0 0.00 0.01 0.01 83 1017.2
20260905220517 76 45 1.0 4.0 0.00 0.01 0.01 83 1017.3
20260905215537 77 45 1.0 4.0 0.00 0.01 0.01 82 1017.4
20260905214517 77 338 1.0 3.0 0.00 0.01 0.01 83 1017.6
20260905213517 76 0.0 2.0 0.00 0.01 0.01 83 1017.7
20260905212517 77 315 1.0 4.0 0.00 0.01 0.01 82 1017.6
20260905211517 76 68 1.0 4.0 0.00 0.01 0.01 81 1017.5
20260905210517 77 68 2.0 4.0 0.00 0.01 0.01 80 1017.8
20260905205517 77 90 3.0 7.0 0.00 0.01 0.01 80 1017.7
20260905204517 77 45 2.0 7.0 0.00 0.01 0.01 82 1017.6
20260905203516 76 68 4.0 8.0 0.00 0.01 0.01 81 1017.6
20260905202516 76 315 1.0 4.0 0.00 0.01 0.01 82 1017.6
20260905201517 76 68 3.0 7.0 0.00 0.01 0.01 83 1017.7
20260905200517 76 68 4.0 9.0 0.00 0.01 0.01 83 1018.0
20260905195537 76 90 5.0 8.0 0.00 0.01 0.01 81 1017.8
20260905194516 77 68 2.0 6.0 0.00 0.01 0.01 83 1018.1
20260905193536 76 90 5.0 11.0 0.00 0.01 0.01 84 1017.8
20260905192516 76 68 5.0 8.0 0.00 0.01 0.01 82 1018.0
20260905191537 76 90 6.0 11.0 0.00 0.01 0.01 84 1017.9
20260905190516 76 68 4.0 10.0 0.00 0.01 0.01 84 1017.9
20260905185518 76 90 6.0 11.0 0.00 0.01 0.01 83 1018.0
20260905184517 77 45 5.0 9.0 0.00 0.01 0.01 82 1018.0
20260905183536 77 90 5.0 11.0 0.00 0.01 0.01 80 1018.1
20260905182516 78 68 5.0 11.0 0.00 0.01 0.01 83 1018.1
20260905181516 77 68 4.0 9.0 0.00 0.01 0.01 82 1018.1
20260905180516 76 90 4.0 8.0 0.00 0.01 0.01 85 1018.4
20260905175516 76 68 4.0 8.0 0.00 0.01 0.01 85 1018.5
20260905174516 76 68 5.0 10.0 0.00 0.02 0.01 84 1018.3
20260905173516 76 45 3.0 8.0 0.00 0.04 0.01 84 1018.4
20260905172516 77 68 1.0 6.0 0.00 0.04 0.01 85 1018.5
20260905171516 76 68 3.0 9.0 0.00 0.05 0.01 86 1018.4
20260905170516 77 90 3.0 7.0 0.00 0.06 0.01 85 1018.3
20260905165516 77 68 4.0 8.0 0.00 0.07 0.01 84 1018.4
20260905164516 77 68 3.0 8.0 0.00 0.22 0.01 85 1018.3